Starlink 35940

operational
NORAD ID: 66617 Int'l Des: 2025-271 Owner: SPXS Country: US Constellation: starlink
LEOCIRCULAR

About Starlink 35940

Description loading...

Live Position

Loading 3D Globe...

Upcoming Passes

Altitude History

Altitude vs Time

uPlot chart will show altitude changes over time

Two-Line Element Set

1 66617U 25271A 26062.47707380 .00032276 00000-0 10966-2 0 9999
2 66617 53.1608 168.9300 0001616 65.4632 294.6537 15.30215496 16614
Epoch: Mar 3, 2026 • Age: 24 hours

Current Status

Altitude 494.5 km
Velocity 7.62 km/s
Sub-Earth Point -52.95°S, 88.06°W
Launch Date Nov 23, 2025
Age 0.2 years
Type internet

Technical Details

Classification Payload
Mass 575.00 kg
Dry Mass 530.00 kg
Total Mass 575.00 kg
Length 0.30 m
Diameter 4.10 m
Span 29.00 m
Shape Box + pan
Manufacturer SPXS
Bus Type Starlink V2MO
Phase Status In Orbit
Owner/State SPXS/US

Large Constellations

Loading constellations...